SCP
1 1 2 2 2 2 2 2 1 1 1 1 1 1 1 1 0 0 0 0 0 0 0 0 0 0 0 0 0 0 0 0 0 0 0 0 0 1
1 2 2 2 2 2 2 2 2 1 1 1 1 1 1 1 0 0 1 0 0 0 0 0 0 0 0 0 0 0 0 0 0 0 0 0 0 0
2 2 2 2 2 2 2 2 2 2 1 1 1 2 2 1 1 1 1 1 0 0 0 0 0 0 0 0 0 0 0 0 0 0 0 0 0 0
3 3 3 3 2 2 2 3 2 2 2 1 2 2 2 2 2 1 1 1 1 0 0 0 0 0 0 0 0 0 0 0 0 0 0 0 0 0
4 4 4 4 3 3 3 2 2 2 2 1 1 2 2 2 2 2 1 1 1 0 0 0 0 0 0 0 0 0 0 0 0 0 0 0 0 0
5 5 4 4 4 3 3 2 1 1 1 1 1 1 1 2 2 1 1 1 1 1 0 0 0 0 0 0 0 0 0 0 0 0 0 0 0 0
5 5 4 4 3 3 2 2 1 1 1 1 1 1 1 1 1 1 1 1 1 1 1 0 0 0 0 0 0 0 0 0 0 0 0 0 0 0
5 4 4 3 2 2 1 1 1 1 1 1 1 1 1 1 1 1 1 1 1 1 1 1 0 0 0 0 0 0 0 0 0 0 0 0 0 0
5 4 3 3 2 1 1 0 0 0 0 1 1 1 1 1 2 1 1 1 1 1 1 1 1 0 0 0 0 0 0 0 0 0 0 0 0 0
5 4 3 2 2 1 1 1 1 1 0 0 1 1 1 1 1 1 1 1 1 1 1 1 1 1 0 0 0 0 0 0 0 0 0 0 0 0
4 4 3 2 1 1 1 1 1 1 1 0 0 1 1 1 1 1 1 1 1 1 1 1 1 1 1 0 0 0 0 0 0 0 0 0 0 0
3 3 2 1 1 1 1 2 2 2 2 1 1 1 0 0 0 1 1 1 1 1 1 1 1 1 1 1 1 0 0 0 0 0 0 0 0 0
3 2 2 1 0 0 1 1 2 2 2 2 1 1 1 1 1 1 1 1 1 1 1 1 1 1 1 1 1 1 1 1 0 0 0 0 0 0
3 2 2 1 0 0 0 1 1 1 2 2 2 1 1 1 1 1 1 1 1 1 1 1 1 1 1 1 1 1 1 1 1 0 0 0 0 0
2 2 1 0 0 0 0 0 0 1 1 2 2 1 1 1 2 2 2 2 2 2 1 2 2 2 2 1 1 1 1 1 1 1 0 0 0 0
1 1 1 1 0 0 0 0 0 0 1 1 1 1 1 2 2 2 3 3 3 2 2 3 3 3 2 2 2 2 2 1 1 1 0 0 0 0
1 1 1 1 1 1 1 1 1 1 1 1 1 2 2 2 1 2 2 3 3 3 3 4 4 4 3 3 3 3 2 1 1 1 0 0 0 0
1 2 2 2 2 2 2 2 2 2 2 2 2 2 2 2 1 2 2 3 3 3 4 5 5 4 3 3 3 3 2 1 1 0 0 0 0 0
1 2 3 3 3 3 2 2 3 3 3 3 3 3 3 2 2 2 2 2 2 3 4 5 5 4 3 2 2 2 1 1 0 0 0 0 0 0
2 2 2 2 2 2 2 2 2 2 2 2 2 3 3 3 2 2 1 1 1 2 3 3 4 3 2 2 1 1 1 0 0 0 0 0 0 0
2 2 2 2 2 2 2 1 1 1 1 1 2 2 2 2 1 1 1 1 1 1 1 2 2 2 2 1 1 1 0 0 0 0 0 0 0 0
2 2 2 2 2 2 1 1 1 1 1 1 1 1 1 1 1 1 1 1 1 1 1 1 1 1 1 1 0 0 0 0 0 0 0 0 0 0
1 2 2 2 1 1 1 1 1 0 0 0 1 1 1 1 1 1 1 1 1 1 1 1 1 1 1 0 0 0 0 0 0 0 0 0 0 0
Wind_Speed
3 3 3 2 1 1 1 1 1 1 2 2 2 3 3 3 8 7 5 11 12 10 10 9 9 9 9 8 8 8 8 8 8 7 8 8 8 9
3 2 2 2 2 2 2 1 1 1 1 1 2 2 2 3 8 5 5 11 13 12 11 11 10 9 9 9 9 9 9 8 8 8 8 8 8 9
4 4 4 3 2 2 2 2 2 1 1 1 1 2 2 2 4 3 4 5 7 14 13 12 11 11 10 10 10 10 9 9 9 9 9 9 9 9
5 4 4 4 3 2 2 2 1 1 2 1 1 1 2 3 4 4 4 6 5 11 15 14 13 12 11 11 11 11 10 10 10 9 9 9 9 9
5 4 4 3 3 2 2 2 1 2 2 2 2 2 2 3 3 4 5 3 5 6 12 13 13 13 13 12 12 11 11 11 10 10 9 9 9 9
4 4 4 4 3 3 3 2 2 2 1 2 2 2 2 3 2 3 3 2 3 4 4 8 12 14 14 13 12 12 12 11 10 10 9 9 9 9
3 3 4 3 3 2 2 1 1 2 2 2 2 2 2 1 2 2 2 2 3 2 1 3 3 4 7 11 13 13 12 12 11 10 10 9 9 9
4 3 4 4 5 5 4 2 1 2 2 2 2 2 1 1 1 1 1 1 2 1 1 3 2 3 4 5 10 13 14 13 12 11 11 10 10 10
4 4 5 5 6 5 6 6 5 6 5 2 3 3 2 2 1 1 2 2 2 2 2 4 3 3 4 4 10 12 13 13 13 12 12 11 11 11
4 4 4 2 3 3 5 5 5 5 6 6 4 3 3 2 2 2 3 3 4 3 2 3 3 3 4 2 7 11 12 13 13 13 13 12 12 11
4 3 3 3 2 2 2 3 3 3 5 6 6 5 4 3 1 1 2 2 4 4 2 3 3 3 3 3 4 9 10 12 13 13 13 12 12 10
3 3 3 3 3 4 3 3 3 3 3 3 4 5 5 5 6 4 3 3 3 3 2 2 2 2 3 3 1 2 4 7 10 11 11 11 10 5
3 3 3 6 6 5 4 3 3 2 2 3 3 3 4 4 4 4 4 3 4 4 3 1 2 2 3 3 2 2 2 2 3 5 8 10 10 7
2 1 1 4 6 6 4 3 2 2 2 3 3 2 2 2 3 4 5 5 5 6 4 3 2 2 3 4 4 3 2 3 3 3 3 5 7 10
0 1 1 2 3 2 4 3 2 2 2 3 3 3 2 2 2 2 3 4 5 6 5 4 4 3 3 4 4 4 4 4 3 2 2 2 3 3
2 1 1 1 1 1 2 2 2 2 2 3 2 2 2 2 2 2 2 2 3 4 4 4 4 4 4 5 5 5 4 3 3 2 2 3 3 2
2 1 1 1 1 1 1 2 2 2 2 3 3 2 2 2 2 2 2 2 3 3 3 3 4 4 5 5 5 5 4 4 3 3 2 4 3 3
3 1 1 1 1 1 1 1 1 1 1 1 2 2 3 3 3 3 2 2 2 3 3 3 3 3 3 4 4 4 4 4 4 4 3 4 4 3
3 1 1 1 1 2 2 2 1 1 1 1 2 2 2 3 3 3 3 2 3 3 3 3 2 2 4 6 5 4 5 5 4 4 3 4 5 4
2 2 2 2 2 2 3 3 3 3 2 2 2 2 2 3 3 3 3 3 3 4 4 3 2 2 4 5 5 5 5 5 4 4 4 3 3 4
2 3 3 3 3 3 3 3 3 3 4 3 3 4 4 4 4 4 4 5 4 4 5 4 4 5 4 3 4 4 3 4 4 4 4 4 4 4
5 4 4 5 5 5 4 4 4 4 5 5 5 5 5 5 5 6 5 5 5 5 5 4 4 3 3 5 6 5 4 4 4 5 6 5 4 4
6 6 6 6 6 5 5 6 6 6 6 6 5 5 5 5 5 5 6 5 5 6 6 5 4 4 4 4 5 4 5 5 3 4 4 5 6 8
Wind_Direction
223 212 223 246 246 231 232 201 190 224 229 198 169 176 171 144 160 188 182 194 199 205 211 217 223 226 225 227 231 238 242 247 250 252 253 254 256 258
219 214 218 243 257 245 235 228 209 207 239 209 189 161 165 166 174 202 188 186 201 208 212 216 221 222 221 223 229 234 239 243 247 249 250 251 252 254
222 205 211 231 254 275 255 239 217 184 229 256 149 131 152 144 163 218 197 187 204 212 214 216 219 221 223 228 231 235 238 242 246 249 251 252 253 254
222 218 208 215 213 248 284 275 236 178 193 236 198 175 185 186 195 221 233 222 215 206 209 215 218 222 226 230 233 235 237 241 245 247 249 252 254 256
207 206 204 215 212 228 248 276 283 251 193 222 235 203 207 204 199 233 252 246 243 214 205 214 221 223 226 230 232 233 235 238 241 244 247 250 252 254
204 202 208 208 208 224 233 240 265 288 259 241 244 220 211 206 185 229 256 244 254 242 209 207 218 224 228 230 230 231 232 234 237 240 244 247 250 252
207 205 209 195 186 198 241 243 273 276 276 255 254 240 208 197 207 236 249 250 253 253 232 229 210 216 223 230 231 231 229 230 231 233 236 241 245 249
210 210 204 196 189 191 190 183 192 245 280 302 292 292 259 220 224 273 287 290 283 287 282 269 235 227 227 220 213 214 218 221 225 227 230 235 240 245
213 215 233 224 197 197 204 215 225 228 219 238 276 292 308 322 307 296 301 298 279 280 276 275 269 261 253 233 207 210 214 216 219 223 228 233 238 244
222 221 226 236 233 214 212 211 217 220 219 220 232 253 275 298 284 269 270 272 266 259 238 264 273 270 279 240 211 211 213 216 218 223 228 234 239 244
231 228 215 203 209 217 237 235 224 230 225 215 213 218 220 237 246 281 273 275 277 270 232 235 260 271 270 259 226 217 219 221 225 229 232 237 242 247
218 216 215 206 194 193 214 235 239 252 268 222 217 228 232 235 226 223 245 261 274 278 266 247 267 285 282 272 271 220 237 240 241 243 243 245 244 240
219 210 197 184 187 192 205 221 233 262 276 260 237 231 230 228 219 216 217 230 255 267 293 294 283 277 267 283 286 256 238 253 246 252 247 246 241 226
264 245 145 161 183 195 200 218 234 257 270 274 264 251 241 230 222 215 215 219 227 245 269 279 276 286 292 292 291 293 285 268 254 249 247 247 246 241
352 55 96 143 156 186 223 234 243 243 250 257 263 268 264 262 262 239 225 224 238 251 258 245 246 261 266 274 281 284 288 281 267 265 260 254 248 244
238 219 151 154 191 216 194 207 215 235 249 258 271 279 291 296 283 267 256 249 250 260 260 253 242 244 254 260 266 274 274 274 281 277 278 273 265 256
184 184 200 179 200 226 228 214 209 214 239 261 279 292 298 296 297 301 285 277 266 271 280 268 251 247 251 259 267 271 279 281 281 284 293 289 282 280
121 108 73 30 310 282 259 246 234 258 269 270 284 298 301 301 299 297 291 281 283 287 294 299 302 300 292 274 250 273 281 284 286 284 279 281 283 283
84 63 41 15 351 351 352 359 3 344 309 289 281 287 293 294 295 296 296 293 288 287 286 284 286 289 291 290 286 270 279 284 285 285 279 274 277 276
53 27 16 16 15 9 7 0 357 354 350 339 330 319 306 299 298 300 301 304 302 295 291 288 288 278 273 282 286 286 269 276 287 287 289 293 286 291
47 38 31 29 27 22 18 11 4 358 357 354 350 338 326 318 313 308 305 303 291 288 291 288 280 269 267 276 283 284 289 291 292 288 293 295 295 292
45 46 40 36 30 23 18 14 7 2 358 355 350 339 329 325 319 311 307 306 299 295 294 291 288 283 278 275 280 285 294 302 304 298 288 272 275 276
42 39 39 35 31 24 17 12 12 9 5 356 346 336 332 327 321 316 313 310 308 305 302 302 305 299 287 283 286 293 303 307 302 300 299 294 273 269